Regional Weather Roundup
Issued by NWS

Home | Current Version | Previous Version | Graphics & Text | Print | Product List | Glossary Off
Versions: 1 2 3 4 5 6 7 8 9 10 11 12 13 14 15 16 17 18 19 20 21 22 23 24 25 26 27 28 29 30 31 32 33 34 35 36 37 38 39 40 41 42 43 44 45 46 47 48 49 50

000
ASUS43 KFSD 252210
RWRSD

WEATHER ROUNDUP FOR SOUTH DAKOTA
NATIONAL WEATHER SERVICE SIOUX FALLS SD
500 PM CDT MON JUL 25 2016

NOTE: "FAIR" INDICATES FEW OR NO CLOUDS BELOW 12,000 FEET WITH NO
SIGNIFICANT WEATHER AND/OR OBSTRUCTIONS TO VISIBILITY.


SDZ001>005-009-010-012>017-252300-
NORTHWEST AND NORTH CENTRAL SOUTH DAKOTA

CITY           SKY/WX    TMP DP  RH WIND       PRES   REMARKS
BUFFALO          N/A     96  42  15 NE8       29.90F
FAITH            N/A     97  47  18 SW14G22   29.97S
MOBRIDGE       SUNNY    100  49  17 SW16G24   29.91S HX  97
$$

SDZ012>016-024>037-041>051-057-063-072>074-252300-
SOUTHWEST AND SOUTH CENTRAL SOUTH DAKOTA

CITY           SKY/WX    TMP DP  RH WIND       PRES   REMARKS
RAPID CTY ARPT CLOUDY    86  57  37 S10       30.01S
PIERRE         SUNNY     97  45  16 S21       29.95F
CUSTER         SUNNY     83  49  30 VRB6      30.17F
ELLSWORTH AFB  PTSUNNY   86  58  38 S9        30.00F
PHILIP         SUNNY     96  56  26 S20G28    29.96F
PINE RIDGE     LGT RAIN  91  57  31 S21G26    30.04F
WINNER         FAIR      95  44  17 S21G28    30.03F
$$

SDZ004>011-016>023-039-040-252300-
NORTHEAST SOUTH DAKOTA

CITY           SKY/WX    TMP DP  RH WIND       PRES   REMARKS
ABERDEEN       SUNNY     93  55  27 S14G23    29.97F
WATERTOWN      SUNNY     87  60  40 S18       30.04F
BROOKINGS      SUNNY     84  65  52 S14       30.06F
SISSETON         N/A     89  59  36 SW15G22   29.98F
$$

SDZ017-020-022-023-036>040-048>070-252300-
SOUTHEAST SOUTH DAKOTA

CITY           SKY/WX    TMP DP  RH WIND       PRES   REMARKS
SIOUX FALLS    SUNNY     84  62  47 S7        30.07F
HURON          SUNNY     90  55  30 S16G24    30.00F
CHAMBERLAIN    SUNNY     93  52  24 S16G22    30.02S
MITCHELL       SUNNY     90  56  31 S14G21    30.03F
YANKTON        SUNNY     88  59  37 SE9       30.03F
$$

ABBREVIATIONS USED IN REMARKS
   TC - TEMPERATURE IN CELSIUS
  WCI - WIND CHILL INDEX
   HX - HEAT INDEX
  VSB - VISIBILITY




USA.gov is the U.S. government's official web portal to all federal, state and local government web resources and services.